Time,TemperatureF,DewpointF,PressureIn,WindDirection,WindDirectionDegrees,WindSpeedMPH,WindSpeedGustMPH,Humidity,HourlyPrecipIn,Conditions,Clouds,dailyrainin,SoftwareType,DateUTC
2013-01-10 00:02:00,33.0,27.0,30.40,ESE,118,4.0,7.0,77,0.00,,,0.00,,2013-01-10 06:02:00,
2013-01-10 00:12:00,33.0,27.0,30.40,ESE,118,4.0,7.0,77,0.00,,,0.00,,2013-01-10 06:12:00,
2013-01-10 00:22:00,33.0,27.0,30.40,ESE,122,4.0,7.0,77,0.00,,,0.00,,2013-01-10 06:22:00,
2013-01-10 00:32:00,34.0,28.0,30.38,ESE,120,4.0,8.0,77,0.00,,,0.00,,2013-01-10 06:32:00,
2013-01-10 00:42:00,34.0,28.0,30.38,ESE,120,4.0,8.0,77,0.00,,,0.00,,2013-01-10 06:42:00,
2013-01-10 00:52:00,34.0,28.0,30.38,ESE,119,6.0,9.0,77,0.00,,,0.00,,2013-01-10 06:52:00,
2013-01-10 01:02:00,34.0,28.0,30.38,ESE,122,5.0,11.0,77,0.00,,,0.00,,2013-01-10 07:02:00,
2013-01-10 01:12:00,34.0,28.0,30.38,ESE,122,5.0,11.0,77,0.00,,,0.00,,2013-01-10 07:12:00,
2013-01-10 01:22:00,34.0,28.0,30.38,SE,132,5.0,9.0,77,0.00,,,0.00,,2013-01-10 07:22:00,
2013-01-10 01:32:00,34.0,27.0,30.37,SE,125,5.0,10.0,76,0.00,,,0.00,,2013-01-10 07:32:00,
2013-01-10 01:42:00,34.0,27.0,30.37,SE,125,5.0,10.0,76,0.00,,,0.00,,2013-01-10 07:42:00,
2013-01-10 01:52:00,34.0,27.0,30.37,ESE,116,4.0,7.0,76,0.00,,,0.00,,2013-01-10 07:52:00,
2013-01-10 02:01:00,33.0,27.0,30.37,ESE,123,4.0,7.0,77,0.00,,,0.00,,2013-01-10 08:01:00,
2013-01-10 02:12:00,33.0,27.0,30.37,ESE,123,4.0,7.0,77,0.00,,,0.00,,2013-01-10 08:12:00,
2013-01-10 02:22:00,33.0,27.0,30.38,ESE,123,4.0,7.0,78,0.00,,,0.00,,2013-01-10 08:22:00,
2013-01-10 02:32:00,33.0,27.0,30.37,ESE,122,4.0,7.0,78,0.00,,,0.00,,2013-01-10 08:32:00,
2013-01-10 02:42:00,33.0,27.0,30.37,ESE,122,4.0,7.0,78,0.00,,,0.00,,2013-01-10 08:42:00,
2013-01-10 02:53:00,32.0,26.0,30.37,ESE,118,4.0,7.0,79,0.00,,,0.00,,2013-01-10 08:53:00,
2013-01-10 03:02:00,33.0,27.0,30.38,ESE,121,5.0,8.0,78,0.00,,,0.00,,2013-01-10 09:02:00,
2013-01-10 03:12:00,33.0,27.0,30.38,ESE,121,5.0,8.0,78,0.00,,,0.00,,2013-01-10 09:12:00,
2013-01-10 03:22:00,34.0,27.0,30.37,SE,131,4.0,7.0,76,0.00,,,0.00,,2013-01-10 09:22:00,
2013-01-10 03:32:00,34.0,27.0,30.37,SE,126,4.0,7.0,75,0.00,,,0.00,,2013-01-10 09:32:00,
2013-01-10 03:42:00,34.0,27.0,30.37,SE,126,4.0,7.0,75,0.00,,,0.00,,2013-01-10 09:42:00,
2013-01-10 03:52:00,34.0,27.0,30.36,ESE,122,3.0,6.0,75,0.00,,,0.00,,2013-01-10 09:52:00,
2013-01-10 04:02:00,34.0,27.0,30.36,ESE,103,2.0,6.0,75,0.00,,,0.00,,2013-01-10 10:02:00,
2013-01-10 04:12:00,34.0,27.0,30.36,ESE,103,2.0,6.0,75,0.00,,,0.00,,2013-01-10 10:12:00,
2013-01-10 04:22:00,33.0,27.0,30.35,ESE,111,2.0,5.0,77,0.00,,,0.00,,2013-01-10 10:22:00,
2013-01-10 04:32:00,32.0,26.0,30.34,ESE,104,2.0,4.0,79,0.00,,,0.00,,2013-01-10 10:32:00,
2013-01-10 04:42:00,32.0,26.0,30.34,ESE,104,2.0,4.0,79,0.00,,,0.00,,2013-01-10 10:42:00,
2013-01-10 04:52:00,31.0,25.0,30.34,ESE,102,1.0,4.0,79,0.00,,,0.00,,2013-01-10 10:52:00,
2013-01-10 05:02:00,31.0,26.0,30.33,ESE,112,1.0,2.0,81,0.00,,,0.00,,2013-01-10 11:02:00,
2013-01-10 05:12:00,31.0,26.0,30.33,ESE,112,1.0,2.0,81,0.00,,,0.00,,2013-01-10 11:12:00,
2013-01-10 05:22:00,31.0,26.0,30.32,ESE,111,1.0,3.0,82,0.00,,,0.00,,2013-01-10 11:22:00,
2013-01-10 05:32:00,31.0,26.0,30.32,ESE,110,2.0,4.0,82,0.00,,,0.00,,2013-01-10 11:32:00,
2013-01-10 05:42:00,31.0,26.0,30.32,ESE,110,2.0,4.0,82,0.00,,,0.00,,2013-01-10 11:42:00,
2013-01-10 05:53:00,32.0,27.0,30.32,ESE,103,2.0,5.0,80,0.00,,,0.00,,2013-01-10 11:53:00,
2013-01-10 06:02:00,31.0,26.0,30.32,East,94,1.0,4.0,80,0.00,,,0.00,,2013-01-10 12:02:00,
2013-01-10 06:12:00,31.0,26.0,30.32,East,94,1.0,4.0,80,0.00,,,0.00,,2013-01-10 12:12:00,
2013-01-10 06:22:00,32.0,27.0,30.30,ESE,108,2.0,5.0,81,0.00,,,0.00,,2013-01-10 12:22:00,
2013-01-10 06:32:00,32.0,27.0,30.30,ESE,106,2.0,7.0,81,0.00,,,0.00,,2013-01-10 12:32:00,
2013-01-10 06:42:00,32.0,27.0,30.30,ESE,106,2.0,7.0,81,0.00,,,0.00,,2013-01-10 12:42:00,
2013-01-10 06:53:00,32.0,27.0,30.30,ESE,107,5.0,8.0,80,0.00,,,0.00,,2013-01-10 12:53:00,
2013-01-10 07:02:00,33.0,27.0,30.29,ESE,114,5.0,9.0,79,0.00,,,0.00,,2013-01-10 13:02:00,
2013-01-10 07:12:00,33.0,27.0,30.29,ESE,114,5.0,9.0,79,0.00,,,0.00,,2013-01-10 13:12:00,
2013-01-10 07:22:00,33.0,27.0,30.28,ESE,109,4.0,8.0,79,0.00,,,0.00,,2013-01-10 13:22:00,
2013-01-10 07:32:00,33.0,27.0,30.28,ESE,117,5.0,10.0,78,0.00,,,0.00,,2013-01-10 13:32:00,
2013-01-10 07:42:00,33.0,27.0,30.28,ESE,117,5.0,10.0,78,0.00,,,0.00,,2013-01-10 13:42:00,
2013-01-10 07:53:00,33.0,27.0,30.27,ESE,116,5.0,10.0,78,0.00,,,0.00,,2013-01-10 13:53:00,
2013-01-10 08:02:00,33.0,27.0,30.27,ESE,110,4.0,9.0,78,0.00,,,0.00,,2013-01-10 14:02:00,
2013-01-10 08:12:00,33.0,27.0,30.27,ESE,110,4.0,9.0,78,0.00,,,0.00,,2013-01-10 14:12:00,
2013-01-10 08:22:00,33.0,27.0,30.27,ESE,107,4.0,8.0,78,0.00,,,0.00,,2013-01-10 14:22:00,
2013-01-10 08:32:00,33.0,27.0,30.26,ESE,104,3.0,7.0,78,0.00,,,0.00,,2013-01-10 14:32:00,
2013-01-10 08:43:00,33.0,27.0,30.26,ESE,104,3.0,7.0,78,0.00,,,0.00,,2013-01-10 14:43:00,
2013-01-10 08:53:00,34.0,28.0,30.24,ESE,110,4.0,8.0,77,0.00,,,0.00,,2013-01-10 14:53:00,
2013-01-10 09:03:00,35.0,28.0,30.24,ESE,113,5.0,10.0,75,0.00,,,0.00,,2013-01-10 15:03:00,
2013-01-10 09:12:00,35.0,28.0,30.24,ESE,113,5.0,10.0,75,0.00,,,0.00,,2013-01-10 15:12:00,
2013-01-10 09:22:00,36.0,28.0,30.24,ESE,119,8.0,13.0,73,0.00,,,0.00,,2013-01-10 15:22:00,
2013-01-10 09:33:00,37.0,28.0,30.22,ESE,118,7.0,13.0,70,0.00,,,0.00,,2013-01-10 15:33:00,
2013-01-10 09:43:00,37.0,28.0,30.22,ESE,118,7.0,13.0,70,0.00,,,0.00,,2013-01-10 15:43:00,
2013-01-10 09:53:00,37.0,28.0,30.22,ESE,107,9.0,14.0,69,0.00,,,0.00,,2013-01-10 15:53:00,
2013-01-10 10:02:00,38.0,28.0,30.21,ESE,111,6.0,13.0,68,0.00,,,0.00,,2013-01-10 16:02:00,
2013-01-10 10:13:00,38.0,28.0,30.21,ESE,111,6.0,13.0,68,0.00,,,0.00,,2013-01-10 16:13:00,
2013-01-10 10:23:00,39.0,28.0,30.20,ESE,110,8.0,13.0,65,0.00,,,0.00,,2013-01-10 16:23:00,
2013-01-10 10:33:00,39.0,28.0,30.18,ESE,113,8.0,14.0,64,0.00,,,0.00,,2013-01-10 16:33:00,
2013-01-10 10:43:00,39.0,28.0,30.18,ESE,113,8.0,14.0,64,0.00,,,0.00,,2013-01-10 16:43:00,
2013-01-10 10:53:00,39.0,27.0,30.17,ESE,105,7.0,12.0,62,0.00,,,0.00,,2013-01-10 16:53:00,
2013-01-10 11:03:00,40.0,27.0,30.16,ESE,108,8.0,15.0,59,0.00,,,0.00,,2013-01-10 17:03:00,
2013-01-10 11:12:00,40.0,27.0,30.16,ESE,108,8.0,15.0,59,0.00,,,0.00,,2013-01-10 17:12:00,
2013-01-10 11:22:00,41.0,27.0,30.14,ESE,109,6.0,14.0,57,0.00,,,0.00,,2013-01-10 17:22:00,
2013-01-10 11:33:00,41.0,26.0,30.12,ESE,113,9.0,16.0,55,0.00,,,0.00,,2013-01-10 17:33:00,
2013-01-10 11:42:00,41.0,26.0,30.12,ESE,113,9.0,16.0,55,0.00,,,0.00,,2013-01-10 17:42:00,
2013-01-10 11:53:00,41.0,26.0,30.11,ESE,109,8.0,15.0,54,0.00,,,0.00,,2013-01-10 17:53:00,
2013-01-10 12:03:00,41.0,26.0,30.09,ESE,117,8.0,15.0,55,0.00,,,0.00,,2013-01-10 18:03:00,
2013-01-10 12:12:00,42.0,27.0,30.07,ESE,114,8.0,17.0,55,0.00,,,0.00,,2013-01-10 18:12:00,
2013-01-10 12:23:00,42.0,27.0,30.07,ESE,114,8.0,17.0,55,0.00,,,0.00,,2013-01-10 18:23:00,
2013-01-10 12:33:00,42.0,27.0,30.04,ESE,102,7.0,13.0,55,0.00,,,0.00,,2013-01-10 18:33:00,
2013-01-10 12:43:00,43.0,28.0,30.02,ESE,105,7.0,12.0,54,0.00,,,0.00,,2013-01-10 18:43:00,
2013-01-10 12:53:00,43.0,28.0,30.02,ESE,105,7.0,12.0,54,0.00,,,0.00,,2013-01-10 18:53:00,
2013-01-10 13:02:00,43.0,27.0,30.02,ESE,122,10.0,18.0,53,0.00,,,0.00,,2013-01-10 19:02:00,
2013-01-10 13:13:00,44.0,28.0,30.01,ESE,109,7.0,16.0,53,0.00,,,0.00,,2013-01-10 19:13:00,
2013-01-10 13:23:00,44.0,28.0,30.01,ESE,109,7.0,16.0,53,0.00,,,0.00,,2013-01-10 19:23:00,
2013-01-10 13:33:00,44.0,28.0,29.99,ESE,109,10.0,18.0,52,0.00,,,0.00,,2013-01-10 19:33:00,
2013-01-10 13:53:00,43.0,28.0,29.99,ESE,111,9.0,18.0,54,0.00,,,0.00,,2013-01-10 19:53:00,
2013-01-10 14:02:00,40.0,34.0,29.98,ESE,114,10.0,16.0,79,0.00,,,0.00,,2013-01-10 20:02:00,
2013-01-10 14:12:00,38.0,34.0,29.98,ESE,111,9.0,16.0,85,0.00,,,0.00,,2013-01-10 20:12:00,
2013-01-10 14:23:00,38.0,34.0,29.98,ESE,111,9.0,16.0,85,0.00,,,0.00,,2013-01-10 20:23:00,
2013-01-10 14:33:00,37.0,34.0,29.97,ESE,110,10.0,15.0,89,0.01,,,0.01,,2013-01-10 20:33:00,
2013-01-10 14:42:00,37.0,34.0,29.97,ESE,110,10.0,15.0,89,0.01,,,0.01,,2013-01-10 20:42:00,
2013-01-10 14:53:00,37.0,34.0,29.96,ESE,110,8.0,15.0,89,0.01,,,0.01,,2013-01-10 20:53:00,
2013-01-10 15:03:00,37.0,35.0,29.95,ESE,108,12.0,21.0,91,0.02,,,0.02,,2013-01-10 21:03:00,
2013-01-10 15:12:00,37.0,35.0,29.94,ESE,111,7.0,19.0,91,0.04,,,0.04,,2013-01-10 21:12:00,
2013-01-10 15:23:00,37.0,35.0,29.94,ESE,111,7.0,19.0,91,0.04,,,0.04,,2013-01-10 21:23:00,
2013-01-10 15:33:00,37.0,35.0,29.94,ESE,116,8.0,13.0,91,0.06,,,0.07,,2013-01-10 21:33:00,
2013-01-10 15:42:00,37.0,35.0,29.94,ESE,116,8.0,13.0,91,0.06,,,0.07,,2013-01-10 21:42:00,
2013-01-10 15:53:00,37.0,35.0,29.93,ESE,119,8.0,14.0,91,0.07,,,0.09,,2013-01-10 21:53:00,
2013-01-10 16:03:00,37.0,35.0,29.93,ESE,109,8.0,12.0,91,0.08,,,0.10,,2013-01-10 22:03:00,
2013-01-10 16:25:00,37.0,35.0,29.93,ESE,119,7.0,11.0,92,0.07,,,0.10,,2013-01-10 22:25:00,
2013-01-10 16:33:00,37.0,35.0,29.92,ESE,113,8.0,13.0,92,0.04,,,0.11,,2013-01-10 22:33:00,
2013-01-10 16:43:00,37.0,35.0,29.92,ESE,113,8.0,13.0,92,0.04,,,0.11,,2013-01-10 22:43:00,
2013-01-10 17:02:00,37.0,35.0,29.92,ESE,115,8.0,13.0,92,0.01,,,0.11,,2013-01-10 23:02:00,
2013-01-10 17:12:00,37.0,35.0,29.91,ESE,116,4.0,11.0,92,0.00,,,0.11,,2013-01-10 23:12:00,
2013-01-10 17:22:00,37.0,35.0,29.91,ESE,116,4.0,11.0,92,0.00,,,0.11,,2013-01-10 23:22:00,
2013-01-10 17:33:00,37.0,35.0,29.91,ESE,110,5.0,11.0,92,0.01,,,0.12,,2013-01-10 23:33:00,
2013-01-10 17:43:00,37.0,35.0,29.91,ESE,110,5.0,11.0,92,0.01,,,0.12,,2013-01-10 23:43:00,
2013-01-10 17:53:00,37.0,35.0,29.91,ESE,113,4.0,10.0,92,0.02,,,0.13,,2013-01-10 23:53:00,
2013-01-10 18:02:00,37.0,35.0,29.91,ESE,118,5.0,9.0,92,0.02,,,0.13,,2013-01-11 00:02:00,
2013-01-10 18:12:00,36.0,34.0,29.90,ESE,112,4.0,8.0,92,0.04,,,0.15,,2013-01-11 00:12:00,
2013-01-10 18:23:00,36.0,34.0,29.90,ESE,112,4.0,8.0,92,0.04,,,0.15,,2013-01-11 00:23:00,
2013-01-10 18:33:00,36.0,34.0,29.90,ESE,112,4.0,9.0,92,0.04,,,0.16,,2013-01-11 00:33:00,
2013-01-10 18:43:00,36.0,34.0,29.90,ESE,112,4.0,9.0,92,0.04,,,0.16,,2013-01-11 00:43:00,
2013-01-10 18:53:00,36.0,34.0,29.89,ESE,116,6.0,10.0,92,0.03,,,0.16,,2013-01-11 00:53:00,
2013-01-10 19:03:00,36.0,34.0,29.88,ESE,117,6.0,12.0,92,0.03,,,0.16,,2013-01-11 01:03:00,
2013-01-10 19:12:00,36.0,34.0,29.87,ESE,108,4.0,10.0,92,0.02,,,0.17,,2013-01-11 01:12:00,
2013-01-10 19:22:00,36.0,34.0,29.87,ESE,108,4.0,10.0,92,0.02,,,0.17,,2013-01-11 01:22:00,
2013-01-10 19:33:00,36.0,34.0,29.86,ESE,106,3.0,7.0,92,0.01,,,0.17,,2013-01-11 01:33:00,
2013-01-10 19:43:00,36.0,34.0,29.86,ESE,106,3.0,7.0,92,0.01,,,0.17,,2013-01-11 01:43:00,
2013-01-10 19:53:00,36.0,34.0,29.86,ESE,106,3.0,7.0,92,0.01,,,0.17,,2013-01-11 01:53:00,
2013-01-10 20:02:00,37.0,35.0,29.84,ESE,113,2.0,6.0,93,0.01,,,0.17,,2013-01-11 02:02:00,
2013-01-10 20:12:00,37.0,35.0,29.81,ESE,112,7.0,11.0,93,0.00,,,0.17,,2013-01-11 02:12:00,
2013-01-10 20:23:00,37.0,35.0,29.81,ESE,112,7.0,11.0,93,0.00,,,0.17,,2013-01-11 02:23:00,
2013-01-10 20:33:00,37.0,35.0,29.80,ESE,107,5.0,11.0,93,0.00,,,0.17,,2013-01-11 02:33:00,
2013-01-10 20:43:00,37.0,35.0,29.80,ESE,107,5.0,11.0,93,0.00,,,0.17,,2013-01-11 02:43:00,
2013-01-10 20:54:00,37.0,35.0,29.80,ESE,108,9.0,14.0,93,0.00,,,0.17,,2013-01-11 02:54:00,
2013-01-10 21:02:00,37.0,35.0,29.80,ESE,115,5.0,11.0,93,0.00,,,0.17,,2013-01-11 03:02:00,
2013-01-10 21:12:00,37.0,35.0,29.80,ESE,121,7.0,11.0,93,0.00,,,0.17,,2013-01-11 03:12:00,
2013-01-10 21:23:00,37.0,35.0,29.80,ESE,121,7.0,11.0,93,0.00,,,0.17,,2013-01-11 03:23:00,
2013-01-10 21:33:00,37.0,35.0,29.79,SE,125,7.0,10.0,93,0.00,,,0.17,,2013-01-11 03:33:00,
2013-01-10 21:43:00,37.0,35.0,29.79,SE,125,7.0,10.0,93,0.00,,,0.17,,2013-01-11 03:43:00,
2013-01-10 21:53:00,37.0,35.0,29.79,SE,127,5.0,10.0,93,0.00,,,0.17,,2013-01-11 03:53:00,
2013-01-10 22:02:00,37.0,35.0,29.79,ESE,120,5.0,8.0,93,0.00,,,0.17,,2013-01-11 04:02:00,
2013-01-10 22:12:00,37.0,35.0,29.78,SE,129,5.0,12.0,93,0.00,,,0.17,,2013-01-11 04:12:00,
2013-01-10 22:22:00,37.0,35.0,29.78,SE,129,5.0,12.0,93,0.00,,,0.17,,2013-01-11 04:22:00,
2013-01-10 22:33:00,37.0,35.0,29.77,ESE,119,4.0,12.0,93,0.00,,,0.17,,2013-01-11 04:33:00,
2013-01-10 22:42:00,37.0,35.0,29.77,ESE,119,4.0,12.0,93,0.00,,,0.17,,2013-01-11 04:42:00,
2013-01-10 22:52:00,37.0,35.0,29.75,ESE,112,8.0,12.0,93,0.00,,,0.17,,2013-01-11 04:52:00,
2013-01-10 23:03:00,38.0,36.0,29.74,SE,128,6.0,10.0,93,0.00,,,0.17,,2013-01-11 05:03:00,
2013-01-10 23:12:00,38.0,36.0,29.74,SE,128,6.0,10.0,93,0.00,,,0.17,,2013-01-11 05:12:00,
2013-01-10 23:22:00,38.0,36.0,29.73,SE,135,4.0,10.0,93,0.00,,,0.17,,2013-01-11 05:22:00,
2013-01-10 23:33:00,37.0,35.0,29.72,SE,129,4.0,8.0,93,0.00,,,0.17,,2013-01-11 05:33:00,
2013-01-10 23:42:00,37.0,35.0,29.72,SE,129,4.0,8.0,93,0.00,,,0.17,,2013-01-11 05:42:00,
2013-01-10 23:53:00,38.0,36.0,29.71,ESE,121,5.0,8.0,93,0.00,,,0.17,,2013-01-11 05:53:00,